Location: Caltech
(34.1382°N, 118.1253°W)
Time: 07:26:04
(UTC-08:00)

ASTRO E2 - Visible Passes

Search period start: 19 February 2018 00:00
Search period end: 01 March 2018 00:00
Orbit: 513 x 520 km, 31.4° (Epoch: 18 February)

Date Brightness Start Highest point End Pass type
(mag) Time Alt. Az. Time Alt. Az. Time Alt. Az.
19 Feb 5.7 03:53:21 14° E 03:53:21 14° E 03:54:03 10° E visible
19 Feb 3.1 05:28:15 23° WSW 05:30:30 53° S 05:34:25 10° ESE visible
20 Feb 3.1 05:11:42 35° WSW 05:12:59 50° S 05:16:53 10° ESE visible
21 Feb 3.1 04:55:10 46° SSW 04:55:28 47° S 04:59:20 10° ESE visible
22 Feb 3.6 04:38:40 39° SSE 04:38:40 39° SSE 04:41:46 10° ESE visible
23 Feb 4.5 04:22:13 25° SE 04:22:13 25° SE 04:24:12 10° ESE visible
23 Feb 4.8 05:58:05 10° WSW 06:00:29 15° SSW 06:02:53 10° SSE visible
24 Feb 5.3 04:05:48 15° SE 04:05:48 15° SE 04:06:36 10° SE visible
24 Feb 4.9 05:40:57 10° SW 05:42:55 13° SSW 05:44:52 10° S visible
25 Feb 4.9 05:24:23 11° SW 05:25:20 11° SSW 05:26:36 10° S visible
